Location: Bourg-d�Oueil
(42.8588°N, 0.4991°E)
Time: 15:09:37
(UTC+00:00)

Tiangong - Pass Details

Date: 04 December 2022
Orbit: 383 x 386 km, 41.5° (Epoch: 29 January)

Event Time Altitude Azimuth Distance (km) Brightness Sun altitude
Rises 17:55:07 0° 261° (W) 2,256 3.6 -16.2°
Reaches altitude 10° 17:57:12 10° 258° (WSW) 1,404 2.1 -16.5°
Maximum altitude 18:00:20 67° 176° (S) 421 -2.0 -17.1°
Enters shadow 18:01:00 49° 115° (ESE) 507 -1.9 -17.2°
